カタログに戻る

THORAD AGENA D DEB

運用中PO
NORAD 4857·DEBRIS·🇺🇸 United States

打ち上げ Apr 8, 1970 から Vandenberg Space Force Base

Loading…

次のパス

TLE

Source: Space-Track
1  4857U 70025EM  26224.97202735  .00001105  00000-0  44383-3 0  9991
2  4857  99.7339 137.4050 0043976 305.9792  53.7312 14.30088390831076

AllMySatでTHORAD AGENA D DEBをリアルタイム追跡

Download on the App Store